When you browse on this site, cookies collect data to enhance your experience and personalize the content and advertising you see.
Visit our Privacy Policy to learn more. By continuing to use the site, you agree to this use of cookies and data.
  • In France
  • List of Countries
  • For 7 days
  • Water Temperature
  • Weather Map
  • Weather Widgets
  • user-avatar
    Login

    Hourly Weather Klonna

    Today, 23 October, Wednesday

    Time Temperature Precipitation Wind Pressure Humidity
    00:00 +14°C° 0 mm 1 mps 752 mmHg 84%
    01:00 +14°C° 0 mm 1 mps 752 mmHg 83%
    02:00 +14°C° 0 mm 1 mps 752 mmHg 84%
    03:00 +13°C° 0 mm 1 mps 752 mmHg 85%
    04:00 +13°C° 0 mm 1 mps 752 mmHg 87%
    05:00 +13°C° 0 mm 1 mps 752 mmHg 86%
    06:00 +13°C° 0 mm 1 mps 752 mmHg 85%
    07:00 +13°C° 0 mm 1 mps 752 mmHg 85%
    08:00 +15°C° 0 mm 1 mps 752 mmHg 78%
    09:00 +16°C° 0 mm 1 mps 752 mmHg 71%
    10:00 +19°C° 0 mm 1 mps 752 mmHg 64%
    11:00 +20°C° 0 mm 1 mps 751 mmHg 61%
    12:00 +20°C° 0 mm 1 mps 751 mmHg 59%
    13:00 +21°C° 0 mm 1 mps 751 mmHg 56%
    14:00 +20°C° 0 mm 2 mps 750 mmHg 61%
    15:00 +19°C° 0 mm 2 mps 750 mmHg 65%
    16:00 +18°C° 0 mm 2 mps 750 mmHg 69%
    17:00 +17°C° 0 mm 2 mps 749 mmHg 74%
    18:00 +16°C° 0 mm 2 mps 749 mmHg 79%
    19:00 +15°C° 0 mm 2 mps 749 mmHg 84%
    20:00 +15°C° 0 mm 2 mps 749 mmHg 86%
    21:00 +14°C° 0 mm 2 mps 749 mmHg 88%
    22:00 +13°C° 0 mm 3 mps 749 mmHg 90%
    23:00 +13°C° 0 mm 3 mps 748 mmHg 91%

    Tomorrow, 24 October, Thursday

    Time Temperature Precipitation Wind Pressure Humidity
    00:00 +13°C° 0 mm 3 mps 748 mmHg 91%
    01:00 +12°C° 0 mm 3 mps 748 mmHg 92%
    02:00 +12°C° 0 mm 3 mps 748 mmHg 92%
    03:00 +12°C° 0 mm 3 mps 747 mmHg 92%
    04:00 +12°C° 0 mm 3 mps 746 mmHg 93%
    05:00 +11°C° 0 mm 3 mps 746 mmHg 92%
    06:00 +11°C° 0 mm 3 mps 746 mmHg 92%
    07:00 +11°C° 0 mm 3 mps 746 mmHg 91%
    08:00 +13°C° 0 mm 3 mps 746 mmHg 82%
    09:00 +16°C° 0 mm 3 mps 745 mmHg 73%
    10:00 +18°C° 0 mm 3 mps 745 mmHg 64%
    11:00 +19°C° 0 mm 3 mps 745 mmHg 60%
    12:00 +21°C° 0 mm 3 mps 745 mmHg 56%
    13:00 +22°C° 0 mm 3 mps 745 mmHg 51%
    14:00 +21°C° 0 mm 3 mps 744 mmHg 55%
    15:00 +20°C° 0 mm 2 mps 744 mmHg 58%
    16:00 +19°C° 0 mm 2 mps 744 mmHg 62%
    17:00 +18°C° 0 mm 2 mps 744 mmHg 63%
    18:00 +17°C° 0 mm 2 mps 744 mmHg 65%
    19:00 +16°C° 0 mm 2 mps 744 mmHg 66%
    20:00 +16°C° 0 mm 2 mps 744 mmHg 66%
    21:00 +16°C° 0 mm 2 mps 744 mmHg 65%
    22:00 +15°C° 0 mm 2 mps 744 mmHg 65%
    23:00 +15°C° 0 mm 2 mps 745 mmHg 63%

    Day after tomorrow, 25 October, Friday

    Time Temperature Precipitation Wind Pressure Humidity
    00:00 +15°C° 0 mm 2 mps 745 mmHg 62%
    01:00 +15°C° 0 mm 2 mps 745 mmHg 61%
    02:00 +14°C° 0 mm 3 mps 746 mmHg 64%
    03:00 +13°C° 0 mm 3 mps 746 mmHg 67%
    04:00 +13°C° 0 mm 3 mps 746 mmHg 70%
    05:00 +12°C° 0 mm 3 mps 746 mmHg 76%
    06:00 +12°C° 0 mm 3 mps 747 mmHg 81%
    07:00 +12°C° 0 mm 3 mps 747 mmHg 86%
    08:00 +13°C° 0 mm 3 mps 748 mmHg 82%
    09:00 +15°C° 0 mm 4 mps 748 mmHg 77%
    10:00 +17°C° 0 mm 4 mps 749 mmHg 72%
    11:00 +18°C° 0 mm 4 mps 749 mmHg 69%
    12:00 +19°C° 0 mm 4 mps 750 mmHg 66%
    13:00 +20°C° 0 mm 4 mps 750 mmHg 62%
    14:00 +19°C° 0 mm 3 mps 750 mmHg 66%
    15:00 +18°C° 0 mm 3 mps 750 mmHg 69%
    16:00 +17°C° 0 mm 2 mps 750 mmHg 72%
    17:00 +16°C° 0 mm 2 mps 751 mmHg 74%
    18:00 +15°C° 0 mm 2 mps 751 mmHg 77%
    19:00 +14°C° 0 mm 1 mps 751 mmHg 80%
    20:00 +13°C° 0 mm 1 mps 751 mmHg 82%
    21:00 +13°C° 0 mm 1 mps 752 mmHg 83%
    22:00 +12°C° 0 mm 0 mps 752 mmHg 85%
    23:00 +12°C° 0 mm 1 mps 752 mmHg 85%

    26 October, Saturday

    Time Temperature Precipitation Wind Pressure Humidity
    00:00 +12°C° 0 mm 1 mps 751 mmHg 86%
    01:00 +12°C° 0 mm 1 mps 751 mmHg 87%
    02:00 +12°C° 0 mm 1 mps 751 mmHg 88%
    03:00 +10°C° 0 mm 2 mps 751 mmHg 89%
    04:00 +10°C° 0 mm 2 mps 750 mmHg 89%
    05:00 +10°C° 0 mm 2 mps 750 mmHg 90%
    06:00 +10°C° 0 mm 3 mps 750 mmHg 90%
    07:00 +10°C° 0 mm 3 mps 749 mmHg 91%
    08:00 +12°C° 0 mm 4 mps 749 mmHg 84%
    09:00 +14°C° 0 mm 4 mps 749 mmHg 76%
    10:00 +16°C° 0 mm 5 mps 748 mmHg 69%
    11:00 +17°C° 0 mm 5 mps 748 mmHg 62%
    12:00 +20°C° 0 mm 6 mps 748 mmHg 56%
    13:00 +21°C° 0 mm 6 mps 747 mmHg 49%
    14:00 +20°C° 0 mm 5 mps 747 mmHg 53%
    15:00 +19°C° 0 mm 4 mps 746 mmHg 58%
    16:00 +18°C° 0 mm 4 mps 746 mmHg 62%
    17:00 +17°C° 0 mm 4 mps 746 mmHg 65%
    18:00 +15°C° 0 mm 4 mps 746 mmHg 69%
    19:00 +14°C° 0 mm 4 mps 746 mmHg 72%
    20:00 +14°C° 0 mm 4 mps 746 mmHg 74%
    21:00 +14°C° 0 mm 4 mps 746 mmHg 76%
    22:00 +14°C° 0 mm 4 mps 746 mmHg 77%
    23:00 +13°C° 0 mm 4 mps 746 mmHg 78%

    27 October, Sunday

    Time Temperature Precipitation Wind Pressure Humidity
    00:00 +13°C° 0 mm 4 mps 746 mmHg 78%
    01:00 +13°C° 0 mm 4 mps 746 mmHg 79%
    02:00 +13°C° 0 mm 4 mps 746 mmHg 79%
    03:00 +13°C° 0 mm 4 mps 745 mmHg 79%
    04:00 +12°C° 0 mm 4 mps 745 mmHg 79%
    05:00 +12°C° 0 mm 4 mps 745 mmHg 79%
    06:00 +12°C° 0 mm 4 mps 745 mmHg 79%
    07:00 +12°C° 0 mm 4 mps 745 mmHg 80%
    08:00 +13°C° 0 mm 5 mps 745 mmHg 74%
    09:00 +14°C° 0 mm 6 mps 746 mmHg 69%
    10:00 +15°C° 0 mm 6 mps 746 mmHg 64%
    11:00 +16°C° 0 mm 6 mps 746 mmHg 63%
    12:00 +16°C° 0 mm 6 mps 746 mmHg 62%
    13:00 +16°C° 0 mm 6 mps 746 mmHg 61%
    14:00 +14°C° 0.2 mm 6 mps 746 mmHg 67%
    15:00 +11°C° 0.2 mm 7 mps 746 mmHg 73%
    16:00 +9°C° 0.2 mm 7 mps 746 mmHg 80%
    17:00 +8°C° 0.3 mm 6 mps 747 mmHg 75%
    18:00 +8°C° 0.3 mm 5 mps 748 mmHg 71%
    19:00 +8°C° 0.3 mm 4 mps 748 mmHg 67%
    20:00 +8°C° 0 mm 3 mps 748 mmHg 70%
    21:00 +7°C° 0 mm 3 mps 749 mmHg 73%
    22:00 +7°C° 0 mm 3 mps 749 mmHg 77%
    23:00 +5°C° 0 mm 3 mps 749 mmHg 79%

    28 October, Monday

    Time Temperature Precipitation Wind Pressure Humidity
    00:00 +5°C° 0 mm 3 mps 749 mmHg 81%
    01:00 +5°C° 0 mm 3 mps 749 mmHg 83%
    02:00 +5°C° 0 mm 3 mps 748 mmHg 83%
    03:00 +4°C° 0 mm 3 mps 748 mmHg 83%
    04:00 +4°C° 0 mm 4 mps 748 mmHg 83%
    05:00 +4°C° 0 mm 4 mps 748 mmHg 83%
    06:00 +4°C° 0 mm 4 mps 748 mmHg 83%
    07:00 +4°C° 0 mm 4 mps 748 mmHg 83%
    08:00 +5°C° 0 mm 4 mps 748 mmHg 79%
    09:00 +6°C° 0 mm 5 mps 748 mmHg 75%
    10:00 +7°C° 0 mm 5 mps 748 mmHg 71%
    11:00 +7°C° 0 mm 5 mps 748 mmHg 69%
    12:00 +7°C° 0 mm 5 mps 748 mmHg 66%
    13:00 +8°C° 0 mm 6 mps 747 mmHg 64%
    14:00 +8°C° 0 mm 5 mps 747 mmHg 63%
    15:00 +7°C° 0 mm 5 mps 747 mmHg 63%
    16:00 +7°C° 0 mm 4 mps 747 mmHg 62%
    17:00 +6°C° 0 mm 4 mps 747 mmHg 64%
    18:00 +5°C° 0 mm 4 mps 747 mmHg 67%
    19:00 +4°C° 0 mm 4 mps 747 mmHg 69%
    20:00 +4°C° 0 mm 4 mps 747 mmHg 69%
    21:00 +4°C° 0 mm 4 mps 747 mmHg 70%
    22:00 +4°C° 0 mm 4 mps 748 mmHg 70%
    23:00 +4°C° 0 mm 4 mps 747 mmHg 73%

    29 October, Tuesday

    Time Temperature Precipitation Wind Pressure Humidity
    00:00 +2°C° 0 mm 5 mps 747 mmHg 76%
    01:00 +2°C° 0 mm 5 mps 747 mmHg 78%
    02:00 +2°C° 0 mm 5 mps 747 mmHg 81%
    03:00 +2°C° 0 mm 5 mps 747 mmHg 83%
    04:00 +2°C° 0 mm 5 mps 747 mmHg 86%
    05:00 +2°C° 0 mm 5 mps 747 mmHg 86%
    06:00 +2°C° 0 mm 5 mps 748 mmHg 86%
    07:00 +1°C° 0 mm 5 mps 748 mmHg 87%
    08:00 +3°C° 0.1 mm 4 mps 749 mmHg 83%
    09:00 +3°C° 0.1 mm 4 mps 749 mmHg 79%
    10:00 +3°C° 0.1 mm 4 mps 750 mmHg 75%
    11:00 +4°C° 0 mm 4 mps 751 mmHg 66%
    12:00 +5°C° 0 mm 5 mps 751 mmHg 56%
    13:00 +5°C° 0 mm 5 mps 752 mmHg 47%
    14:00 +3°C° 0 mm 5 mps 752 mmHg 44%
    15:00 +4°C° 0 mm 4 mps 752 mmHg 42%
    16:00 +3°C° 0 mm 4 mps 753 mmHg 40%
    17:00 +1°C° 0 mm 4 mps 753 mmHg 45%
    18:00 +2°C° 0 mm 3 mps 754 mmHg 50%
    19:00 +1°C° 0 mm 3 mps 755 mmHg 56%
    20:00 +1°C° 0 mm 3 mps 755 mmHg 63%
    21:00 +1°C° 0 mm 3 mps 756 mmHg 71%
    22:00 -1°C° 0 mm 4 mps 757 mmHg 78%
    23:00 -1°C° 0 mm 4 mps 757 mmHg 76%
    Show more